Year,Month,Day,Hour,Minute,Value (Times are PST for temperature in C)
2014,04,26,00,00,3.60
2014,04,26,00,01,3.50
2014,04,26,00,02,3.50
2014,04,26,00,03,3.50
2014,04,26,00,04,3.40
2014,04,26,00,05,3.40
2014,04,26,00,06,3.30
2014,04,26,00,07,3.30
2014,04,26,00,08,3.30
2014,04,26,00,09,3.30
2014,04,26,00,10,3.20
2014,04,26,00,11,3.20
2014,04,26,00,12,3.20
2014,04,26,00,13,3.20
2014,04,26,00,14,3.10
2014,04,26,00,15,3.10
2014,04,26,00,16,3.10
2014,04,26,00,17,3.10
2014,04,26,00,18,3.10
2014,04,26,00,19,3.10
2014,04,26,00,20,3.10
2014,04,26,00,21,3.10
2014,04,26,00,22,3.10
2014,04,26,00,23,3.10
2014,04,26,00,24,3.10
2014,04,26,00,25,3.00
2014,04,26,00,26,3.00
2014,04,26,00,27,3.00
2014,04,26,00,28,3.00
2014,04,26,00,29,3.00
2014,04,26,00,30,3.00
2014,04,26,00,31,3.00
2014,04,26,00,32,3.00
2014,04,26,00,33,3.00
2014,04,26,00,34,3.00
2014,04,26,00,35,3.00
2014,04,26,00,36,3.00
2014,04,26,00,37,3.10
2014,04,26,00,38,3.10
2014,04,26,00,39,3.00
2014,04,26,00,40,3.00
2014,04,26,00,41,2.90
2014,04,26,00,42,2.90
2014,04,26,00,43,2.80
2014,04,26,00,44,2.80
2014,04,26,00,45,2.80
2014,04,26,00,46,2.80
2014,04,26,00,47,2.80
2014,04,26,00,48,2.80
2014,04,26,00,49,2.80
2014,04,26,00,50,2.80
2014,04,26,00,51,2.80
2014,04,26,00,52,2.80
2014,04,26,00,53,2.80
2014,04,26,00,54,2.80
2014,04,26,00,55,2.80
2014,04,26,00,56,2.70
2014,04,26,00,57,2.70
2014,04,26,00,58,2.70
2014,04,26,00,59,2.70
2014,04,26,01,00,2.70
2014,04,26,01,01,2.70
2014,04,26,01,02,2.70
2014,04,26,01,03,2.60
2014,04,26,01,04,2.60
2014,04,26,01,05,2.60
2014,04,26,01,06,2.60
2014,04,26,01,07,2.60
2014,04,26,01,08,2.50
2014,04,26,01,09,2.50
2014,04,26,01,10,2.50
2014,04,26,01,11,2.50
2014,04,26,01,12,2.50
2014,04,26,01,13,2.40
2014,04,26,01,14,2.40
2014,04,26,01,15,2.40
2014,04,26,01,16,2.40
2014,04,26,01,17,2.40
2014,04,26,01,18,2.40
2014,04,26,01,19,2.40
2014,04,26,01,20,2.40
2014,04,26,01,21,2.40
2014,04,26,01,22,2.40
2014,04,26,01,23,2.40
2014,04,26,01,24,2.40
2014,04,26,01,25,2.40
2014,04,26,01,26,2.30
2014,04,26,01,27,2.30
2014,04,26,01,28,2.30
2014,04,26,01,29,2.30
2014,04,26,01,30,2.20
2014,04,26,01,31,2.20
2014,04,26,01,32,2.20
2014,04,26,01,33,2.20
2014,04,26,01,34,2.20
2014,04,26,01,35,2.10
2014,04,26,01,36,2.10
2014,04,26,01,37,2.10
2014,04,26,01,38,2.10
2014,04,26,01,39,2.10
2014,04,26,01,40,2.10
2014,04,26,01,41,2.10
2014,04,26,01,42,2.10
2014,04,26,01,43,2.10
2014,04,26,01,44,2.10
2014,04,26,01,45,2.10
2014,04,26,01,46,2.10
2014,04,26,01,47,2.10
2014,04,26,01,48,2.10
2014,04,26,01,49,2.10
2014,04,26,01,50,2.10
2014,04,26,01,51,2.10
2014,04,26,01,52,2.10
2014,04,26,01,53,2.10
2014,04,26,01,54,2.10
2014,04,26,01,55,2.00
2014,04,26,01,56,2.00
2014,04,26,01,57,2.00
2014,04,26,01,58,2.00
2014,04,26,01,59,2.00
2014,04,26,02,00,2.00
2014,04,26,02,01,2.00
2014,04,26,02,02,2.00
2014,04,26,02,03,1.90
2014,04,26,02,04,1.90
2014,04,26,02,05,1.90
2014,04,26,02,06,1.80
2014,04,26,02,07,1.80
2014,04,26,02,08,1.80
2014,04,26,02,09,1.80
2014,04,26,02,10,1.80
2014,04,26,02,11,1.80
2014,04,26,02,12,1.80
2014,04,26,02,13,1.70
2014,04,26,02,14,1.70
2014,04,26,02,15,1.70
2014,04,26,02,16,1.70
2014,04,26,02,17,1.70
2014,04,26,02,18,1.70
2014,04,26,02,19,1.70
2014,04,26,02,20,1.80
2014,04,26,02,21,1.80
2014,04,26,02,22,1.80
2014,04,26,02,23,1.80
2014,04,26,02,24,1.80
2014,04,26,02,25,1.70
2014,04,26,02,26,1.70
2014,04,26,02,27,1.70
2014,04,26,02,28,1.70
2014,04,26,02,29,1.70
2014,04,26,02,30,1.60
2014,04,26,02,31,1.60
2014,04,26,02,32,1.50
2014,04,26,02,33,1.50
2014,04,26,02,34,1.40
2014,04,26,02,35,1.40
2014,04,26,02,36,1.40
2014,04,26,02,37,1.30
2014,04,26,02,38,1.30
2014,04,26,02,39,1.30
2014,04,26,02,40,1.30
2014,04,26,02,41,1.20
2014,04,26,02,42,1.20
2014,04,26,02,43,1.20
2014,04,26,02,44,1.20
2014,04,26,02,45,1.20
2014,04,26,02,46,1.20
2014,04,26,02,47,1.20
2014,04,26,02,48,1.20
2014,04,26,02,49,1.20
2014,04,26,02,50,1.20
2014,04,26,02,51,1.20
2014,04,26,02,52,1.20
2014,04,26,02,53,1.20
2014,04,26,02,54,1.20
2014,04,26,02,55,1.20
2014,04,26,02,56,1.20
2014,04,26,02,57,1.20
2014,04,26,02,58,1.20
2014,04,26,02,59,1.20
2014,04,26,03,00,1.20
2014,04,26,03,01,1.20
2014,04,26,03,02,1.20
2014,04,26,03,03,1.20
2014,04,26,03,04,1.10
2014,04,26,03,05,1.10
2014,04,26,03,06,1.10
2014,04,26,03,07,1.10
2014,04,26,03,08,1.10
2014,04,26,03,09,1.10
2014,04,26,03,10,1.10
2014,04,26,03,11,1.10
2014,04,26,03,12,1.10
2014,04,26,03,13,1.10
2014,04,26,03,14,1.10
2014,04,26,03,15,1.00
2014,04,26,03,16,1.00
2014,04,26,03,17,1.00
2014,04,26,03,18,1.00
2014,04,26,03,19,1.00
2014,04,26,03,20,1.00
2014,04,26,03,21,1.00
2014,04,26,03,22,0.90
2014,04,26,03,23,0.90
2014,04,26,03,24,0.90
2014,04,26,03,25,0.90
2014,04,26,03,26,0.90
2014,04,26,03,27,0.90
2014,04,26,03,28,0.90
2014,04,26,03,29,0.90
2014,04,26,03,30,0.90
2014,04,26,03,31,0.90
2014,04,26,03,32,0.90
2014,04,26,03,33,0.90
2014,04,26,03,34,0.90
2014,04,26,03,35,1.00
2014,04,26,03,36,1.00
2014,04,26,03,37,1.00
2014,04,26,03,38,1.00
2014,04,26,03,39,1.00
2014,04,26,03,40,1.00
2014,04,26,03,41,1.00
2014,04,26,03,42,1.00
2014,04,26,03,43,1.00
2014,04,26,03,44,1.00
2014,04,26,03,45,1.00
2014,04,26,03,46,1.00
2014,04,26,03,47,1.00
2014,04,26,03,48,1.00
2014,04,26,03,49,0.90
2014,04,26,03,50,0.80
2014,04,26,03,51,0.80
2014,04,26,03,52,0.70
2014,04,26,03,53,0.70
2014,04,26,03,54,0.70
2014,04,26,03,55,0.60
2014,04,26,03,56,0.60
2014,04,26,03,57,0.60
2014,04,26,03,58,0.60
2014,04,26,03,59,0.60
2014,04,26,04,00,0.60
2014,04,26,04,01,0.60
2014,04,26,04,02,0.60
2014,04,26,04,03,0.60
2014,04,26,04,04,0.60
2014,04,26,04,05,0.60
2014,04,26,04,06,0.70
2014,04,26,04,07,0.70
2014,04,26,04,08,0.70
2014,04,26,04,09,0.70
2014,04,26,04,10,0.70
2014,04,26,04,11,0.80
2014,04,26,04,12,0.80
2014,04,26,04,13,0.80
2014,04,26,04,14,0.80
2014,04,26,04,15,0.80
2014,04,26,04,16,0.80
2014,04,26,04,17,0.80
2014,04,26,04,18,0.80
2014,04,26,04,19,0.80
2014,04,26,04,20,0.80
2014,04,26,04,21,0.80
2014,04,26,04,22,0.80
2014,04,26,04,23,0.80
2014,04,26,04,24,0.80
2014,04,26,04,25,0.80
2014,04,26,04,26,0.80
2014,04,26,04,27,0.80
2014,04,26,04,28,0.80
2014,04,26,04,29,0.90
2014,04,26,04,30,0.90
2014,04,26,04,31,0.90
2014,04,26,04,32,0.90
2014,04,26,04,33,0.80
2014,04,26,04,34,0.80
2014,04,26,04,35,0.80
2014,04,26,04,36,0.70
2014,04,26,04,37,0.70
2014,04,26,04,38,0.70
2014,04,26,04,39,0.70
2014,04,26,04,40,0.70
2014,04,26,04,41,0.60
2014,04,26,04,42,0.40
2014,04,26,04,43,0.30
2014,04,26,04,44,0.20
2014,04,26,04,45,0.10
2014,04,26,04,46,0.00
2014,04,26,04,47,0.00
2014,04,26,04,48,-0.10
2014,04,26,04,49,-0.10
2014,04,26,04,50,-0.10
2014,04,26,04,51,-0.20
2014,04,26,04,52,-0.20
2014,04,26,04,53,-0.20
2014,04,26,04,54,-0.20
2014,04,26,04,55,-0.20
2014,04,26,04,56,-0.20
2014,04,26,04,57,-0.10
2014,04,26,04,58,-0.10
2014,04,26,04,59,-0.10
2014,04,26,05,00,-0.10
2014,04,26,05,01,-0.10
2014,04,26,05,02,-0.10
2014,04,26,05,03,0.00
2014,04,26,05,04,0.00
2014,04,26,05,05,0.00
2014,04,26,05,06,0.10
2014,04,26,05,07,0.10
2014,04,26,05,08,0.10
2014,04,26,05,09,0.20
2014,04,26,05,10,0.20
2014,04,26,05,11,0.20
2014,04,26,05,12,0.20
2014,04,26,05,13,0.30
2014,04,26,05,14,0.30
2014,04,26,05,15,0.30
2014,04,26,05,16,0.30
2014,04,26,05,17,0.30
2014,04,26,05,18,0.30
2014,04,26,05,19,0.40
2014,04,26,05,20,0.30
2014,04,26,05,21,0.30
2014,04,26,05,22,0.20
2014,04,26,05,23,0.10
2014,04,26,05,24,0.10
2014,04,26,05,25,0.00
2014,04,26,05,26,0.00
2014,04,26,05,27,0.00
2014,04,26,05,28,0.00
2014,04,26,05,29,0.10
2014,04,26,05,30,0.10
2014,04,26,05,31,0.10
2014,04,26,05,32,0.10
2014,04,26,05,33,0.20
2014,04,26,05,34,0.20
2014,04,26,05,35,0.20
2014,04,26,05,36,0.20
2014,04,26,05,37,0.30
2014,04,26,05,38,0.30
2014,04,26,05,39,0.30
2014,04,26,05,40,0.30
2014,04,26,05,41,0.40
2014,04,26,05,42,0.40
2014,04,26,05,43,0.40
2014,04,26,05,44,0.40
2014,04,26,05,45,0.40
2014,04,26,05,46,0.50
2014,04,26,05,47,0.50
2014,04,26,05,48,0.50
2014,04,26,05,49,0.60
2014,04,26,05,50,0.60
2014,04,26,05,51,0.60
2014,04,26,05,52,0.50
2014,04,26,05,53,0.50
2014,04,26,05,54,0.60
2014,04,26,05,55,0.50
2014,04,26,05,56,0.50
2014,04,26,05,57,0.50
2014,04,26,05,58,0.50
2014,04,26,05,59,0.50
2014,04,26,06,00,0.50
2014,04,26,06,01,0.60
2014,04,26,06,02,0.60
2014,04,26,06,03,0.60
2014,04,26,06,04,0.60
2014,04,26,06,05,0.60
2014,04,26,06,06,0.70
2014,04,26,06,07,0.70
2014,04,26,06,08,0.70
2014,04,26,06,09,0.70
2014,04,26,06,10,0.70
2014,04,26,06,11,0.80
2014,04,26,06,12,0.80
2014,04,26,06,13,0.70
2014,04,26,06,14,0.70
2014,04,26,06,15,0.70
2014,04,26,06,16,0.70
2014,04,26,06,17,0.70
2014,04,26,06,18,0.70
2014,04,26,06,19,0.80
2014,04,26,06,20,0.80
2014,04,26,06,21,0.80
2014,04,26,06,22,0.80
2014,04,26,06,23,0.80
2014,04,26,06,24,0.80
2014,04,26,06,25,0.80
2014,04,26,06,26,0.80
2014,04,26,06,27,0.80
2014,04,26,06,28,0.80
2014,04,26,06,29,0.80
2014,04,26,06,30,0.80
2014,04,26,06,31,0.80
2014,04,26,06,32,0.80
2014,04,26,06,33,0.80
2014,04,26,06,34,0.90
2014,04,26,06,35,0.90
2014,04,26,06,36,0.90
2014,04,26,06,37,0.90
2014,04,26,06,38,0.90
2014,04,26,06,39,1.00
2014,04,26,06,40,1.00
2014,04,26,06,41,1.00
2014,04,26,06,42,1.10
2014,04,26,06,43,1.10
2014,04,26,06,44,1.10
2014,04,26,06,45,1.10
2014,04,26,06,46,1.20
2014,04,26,06,47,1.20
2014,04,26,06,48,1.20
2014,04,26,06,49,1.20
2014,04,26,06,50,1.20
2014,04,26,06,51,1.20
2014,04,26,06,52,1.30
2014,04,26,06,53,1.30
2014,04,26,06,54,1.30
2014,04,26,06,55,1.30
2014,04,26,06,56,1.30
2014,04,26,06,57,1.30
2014,04,26,06,58,1.30
2014,04,26,06,59,1.40
2014,04,26,07,00,1.40
2014,04,26,07,01,1.40
2014,04,26,07,02,1.40
2014,04,26,07,03,1.40
2014,04,26,07,04,1.40
2014,04,26,07,05,1.50
2014,04,26,07,06,1.50
2014,04,26,07,07,1.50
2014,04,26,07,08,1.50
2014,04,26,07,09,1.50
2014,04,26,07,10,1.60
2014,04,26,07,11,1.60
2014,04,26,07,12,1.60
2014,04,26,07,13,1.60
2014,04,26,07,14,1.70
2014,04,26,07,15,1.70
2014,04,26,07,16,1.70
2014,04,26,07,17,1.70
2014,04,26,07,18,1.80
2014,04,26,07,19,1.80
2014,04,26,07,20,1.90
2014,04,26,07,21,1.90
2014,04,26,07,22,1.90
2014,04,26,07,23,2.00
2014,04,26,07,24,2.00
2014,04,26,07,25,2.00
2014,04,26,07,26,2.10
2014,04,26,07,27,2.10
2014,04,26,07,28,2.20
2014,04,26,07,29,2.20
2014,04,26,07,30,2.30
2014,04,26,07,31,2.30
2014,04,26,07,32,2.40
2014,04,26,07,33,2.40
2014,04,26,07,34,2.40
2014,04,26,07,35,2.50
2014,04,26,07,36,2.50
2014,04,26,07,37,2.60
2014,04,26,07,38,2.60
2014,04,26,07,39,2.70
2014,04,26,07,40,2.70
2014,04,26,07,41,2.80
2014,04,26,07,42,2.80
2014,04,26,07,43,2.90
2014,04,26,07,44,2.90
2014,04,26,07,45,3.00
2014,04,26,07,46,3.10
2014,04,26,07,47,3.20
2014,04,26,07,48,3.30
2014,04,26,07,49,3.50
2014,04,26,07,50,3.60
2014,04,26,07,51,3.80
2014,04,26,07,52,3.90
2014,04,26,07,53,4.00
2014,04,26,07,54,4.20
2014,04,26,07,55,4.30
2014,04,26,07,56,4.40
2014,04,26,07,57,4.50
2014,04,26,07,58,4.60
2014,04,26,07,59,4.70
2014,04,26,08,00,4.80
2014,04,26,08,01,4.90
2014,04,26,08,02,5.00
2014,04,26,08,03,5.10
2014,04,26,08,04,5.20
2014,04,26,08,05,5.30
2014,04,26,08,06,5.40
2014,04,26,08,07,5.40
2014,04,26,08,08,5.50
2014,04,26,08,09,5.60
2014,04,26,08,10,5.70
2014,04,26,08,11,5.70
2014,04,26,08,12,5.80
2014,04,26,08,13,5.90
2014,04,26,08,14,6.00
2014,04,26,08,15,6.10
2014,04,26,08,16,6.20
2014,04,26,08,17,6.30
2014,04,26,08,18,6.50
2014,04,26,08,19,6.60
2014,04,26,08,20,6.80
2014,04,26,08,21,6.90
2014,04,26,08,22,7.00
2014,04,26,08,23,7.20
2014,04,26,08,24,7.30
2014,04,26,08,25,7.40
2014,04,26,08,26,7.50
2014,04,26,08,27,7.60
2014,04,26,08,28,7.70
2014,04,26,08,29,7.70
2014,04,26,08,30,7.80
2014,04,26,08,31,7.90
2014,04,26,08,32,8.00
2014,04,26,08,33,8.10
2014,04,26,08,34,8.10
2014,04,26,08,35,8.20
2014,04,26,08,36,8.20
2014,04,26,08,37,8.30
2014,04,26,08,38,8.40
2014,04,26,08,39,8.40
2014,04,26,08,40,8.50
2014,04,26,08,41,8.50
2014,04,26,08,42,8.60
2014,04,26,08,43,8.60
2014,04,26,08,44,8.70
2014,04,26,08,45,8.70
2014,04,26,08,46,8.70
2014,04,26,08,47,8.70
2014,04,26,08,48,8.80
2014,04,26,08,49,8.80
2014,04,26,08,50,8.80
2014,04,26,08,51,8.90
2014,04,26,08,52,8.90
2014,04,26,08,53,9.00
2014,04,26,08,54,9.10
2014,04,26,08,55,9.10
2014,04,26,08,56,9.10
2014,04,26,08,57,9.10
2014,04,26,08,58,9.10
2014,04,26,08,59,9.10
2014,04,26,09,00,9.10
2014,04,26,09,01,9.10
2014,04,26,09,02,9.00
2014,04,26,09,03,9.00
2014,04,26,09,04,9.00
2014,04,26,09,05,9.00
2014,04,26,09,06,9.00
2014,04,26,09,07,9.00
2014,04,26,09,08,9.00
2014,04,26,09,09,9.00
2014,04,26,09,10,9.00
2014,04,26,09,11,9.00
2014,04,26,09,12,9.00
2014,04,26,09,13,8.90
2014,04,26,09,14,8.90
2014,04,26,09,15,8.90
2014,04,26,09,16,8.90
2014,04,26,09,17,8.80
2014,04,26,09,18,8.80
2014,04,26,09,19,8.80
2014,04,26,09,20,8.80
2014,04,26,09,21,8.80
2014,04,26,09,22,8.80
2014,04,26,09,23,8.80
2014,04,26,09,24,8.70
2014,04,26,09,25,8.70
2014,04,26,09,26,8.60
2014,04,26,09,27,8.60
2014,04,26,09,28,8.50
2014,04,26,09,29,8.40
2014,04,26,09,30,8.40
2014,04,26,09,31,8.40
2014,04,26,09,32,8.40
2014,04,26,09,33,8.40
2014,04,26,09,34,8.40
2014,04,26,09,35,8.50
2014,04,26,09,36,8.60
2014,04,26,09,37,8.70
2014,04,26,09,38,8.80
2014,04,26,09,39,8.80
2014,04,26,09,40,9.00
2014,04,26,09,41,9.10
2014,04,26,09,42,9.20
2014,04,26,09,43,9.30
2014,04,26,09,44,9.50
2014,04,26,09,45,9.70
2014,04,26,09,46,9.80
2014,04,26,09,47,10.00
2014,04,26,09,48,10.10
2014,04,26,09,49,10.20
2014,04,26,09,50,10.30
2014,04,26,09,51,10.40
2014,04,26,09,52,10.40
2014,04,26,09,53,10.40
2014,04,26,09,54,10.40
2014,04,26,09,55,10.40
2014,04,26,09,56,10.30
2014,04,26,09,57,10.30
2014,04,26,09,58,10.30
2014,04,26,09,59,10.30
2014,04,26,10,00,10.30
2014,04,26,10,01,10.40
2014,04,26,10,02,10.50
2014,04,26,10,03,10.60
2014,04,26,10,04,10.70
2014,04,26,10,05,10.80
2014,04,26,10,06,10.80
2014,04,26,10,07,10.90
2014,04,26,10,08,11.00
2014,04,26,10,09,11.00
2014,04,26,10,10,11.00
2014,04,26,10,11,11.00
2014,04,26,10,12,10.90
2014,04,26,10,13,10.90
2014,04,26,10,14,10.90
2014,04,26,10,15,10.90
2014,04,26,10,16,11.00
2014,04,26,10,17,11.00
2014,04,26,10,18,11.00
2014,04,26,10,19,11.00
2014,04,26,10,20,11.10
2014,04,26,10,21,11.10
2014,04,26,10,22,11.10
2014,04,26,10,23,11.10
2014,04,26,10,24,11.20
2014,04,26,10,25,11.20
2014,04,26,10,26,11.20
2014,04,26,10,27,11.30
2014,04,26,10,28,11.30
2014,04,26,10,29,11.40
2014,04,26,10,30,11.50
2014,04,26,10,31,11.60
2014,04,26,10,32,11.60
2014,04,26,10,33,11.60
2014,04,26,10,34,11.80
2014,04,26,10,35,11.80
2014,04,26,10,36,11.80
2014,04,26,10,37,11.90
2014,04,26,10,38,11.90
2014,04,26,10,39,11.90
2014,04,26,10,40,11.90
2014,04,26,10,41,11.80
2014,04,26,10,42,11.80
2014,04,26,10,43,11.80
2014,04,26,10,44,11.90
2014,04,26,10,45,11.90
2014,04,26,10,46,11.90
2014,04,26,10,47,11.90
2014,04,26,10,48,11.90
2014,04,26,10,49,11.80
2014,04,26,10,50,11.80
2014,04,26,10,51,11.80
2014,04,26,10,52,11.90
2014,04,26,10,53,11.90
2014,04,26,10,54,12.00
2014,04,26,10,55,12.00
2014,04,26,10,56,12.00
2014,04,26,10,57,12.00
2014,04,26,10,58,12.00
2014,04,26,10,59,12.10
2014,04,26,11,00,12.00
2014,04,26,11,01,11.90
2014,04,26,11,02,11.70
2014,04,26,11,03,11.60
2014,04,26,11,04,11.60
2014,04,26,11,05,11.50
2014,04,26,11,06,11.50
2014,04,26,11,07,11.40
2014,04,26,11,08,11.30
2014,04,26,11,09,11.20
2014,04,26,11,10,11.20
2014,04,26,11,11,11.30
2014,04,26,11,12,11.30
2014,04,26,11,13,11.30
2014,04,26,11,14,11.40
2014,04,26,11,15,11.40
2014,04,26,11,16,11.40
2014,04,26,11,17,11.40
2014,04,26,11,18,11.40
2014,04,26,11,19,11.30
2014,04,26,11,20,11.30
2014,04,26,11,21,11.30
2014,04,26,11,22,11.10
2014,04,26,11,23,11.00
2014,04,26,11,24,11.00
2014,04,26,11,25,10.90
2014,04,26,11,26,10.80
2014,04,26,11,27,10.80
2014,04,26,11,28,10.80
2014,04,26,11,29,10.80
2014,04,26,11,30,10.80
2014,04,26,11,31,10.90
2014,04,26,11,32,10.90
2014,04,26,11,33,10.90
2014,04,26,11,34,11.00
2014,04,26,11,35,11.10
2014,04,26,11,36,11.10
2014,04,26,11,37,11.20
2014,04,26,11,38,11.20
2014,04,26,11,39,11.30
2014,04,26,11,40,11.40
2014,04,26,11,41,11.40
2014,04,26,11,42,11.50
2014,04,26,11,43,11.50
2014,04,26,11,44,11.60
2014,04,26,11,45,11.60
2014,04,26,11,46,11.60
2014,04,26,11,47,11.70
2014,04,26,11,48,11.80
2014,04,26,11,49,11.80
2014,04,26,11,50,11.80
2014,04,26,11,51,11.80
2014,04,26,11,52,11.80
2014,04,26,11,53,11.80
2014,04,26,11,54,11.70
2014,04,26,11,55,11.60
2014,04,26,11,56,11.60
2014,04,26,11,57,11.60
2014,04,26,11,58,11.60
2014,04,26,11,59,11.60
2014,04,26,12,00,11.60
2014,04,26,12,01,11.60
2014,04,26,12,02,11.60
2014,04,26,12,03,11.60
2014,04,26,12,04,11.60
2014,04,26,12,05,11.60
2014,04,26,12,06,11.60
2014,04,26,12,07,11.60
2014,04,26,12,08,11.60
2014,04,26,12,09,11.50
2014,04,26,12,10,11.50
2014,04,26,12,11,11.40
2014,04,26,12,12,11.30
2014,04,26,12,13,11.20
2014,04,26,12,14,11.00
2014,04,26,12,15,10.90
2014,04,26,12,16,10.80
2014,04,26,12,17,10.70
2014,04,26,12,18,10.70
2014,04,26,12,19,10.60
2014,04,26,12,20,10.60
2014,04,26,12,21,10.50
2014,04,26,12,22,10.40
2014,04,26,12,23,10.30
2014,04,26,12,24,10.20
2014,04,26,12,25,10.20
2014,04,26,12,26,10.10
2014,04,26,12,27,10.10
2014,04,26,12,28,10.00
2014,04,26,12,29,10.00
2014,04,26,12,30,10.00
2014,04,26,12,31,10.10
2014,04,26,12,32,10.10
2014,04,26,12,33,10.10
2014,04,26,12,34,10.00
2014,04,26,12,35,10.00
2014,04,26,12,36,9.90
2014,04,26,12,37,9.80
2014,04,26,12,38,9.70
2014,04,26,12,39,9.60
2014,04,26,12,40,9.60
2014,04,26,12,41,9.60
2014,04,26,12,42,9.60
2014,04,26,12,43,9.50
2014,04,26,12,44,9.50
2014,04,26,12,45,9.40
2014,04,26,12,46,9.40
2014,04,26,12,47,9.40
2014,04,26,12,48,9.40
2014,04,26,12,49,9.40
2014,04,26,12,50,9.50
2014,04,26,12,51,9.50
2014,04,26,12,52,9.50
2014,04,26,12,53,9.60
2014,04,26,12,54,9.60
2014,04,26,12,55,9.60
2014,04,26,12,56,9.70
2014,04,26,12,57,9.80
2014,04,26,12,58,9.90
2014,04,26,12,59,10.00
2014,04,26,13,00,10.00
2014,04,26,13,01,10.10
2014,04,26,13,02,10.20
2014,04,26,13,03,10.20
2014,04,26,13,04,10.30
2014,04,26,13,05,10.30
2014,04,26,13,06,10.40
2014,04,26,13,07,10.40
2014,04,26,13,08,10.50
2014,04,26,13,09,10.50
2014,04,26,13,10,10.60
2014,04,26,13,11,10.60
2014,04,26,13,12,10.60
2014,04,26,13,13,10.60
2014,04,26,13,14,10.60
2014,04,26,13,15,10.50
2014,04,26,13,16,10.40
2014,04,26,13,17,10.30
2014,04,26,13,18,10.30
2014,04,26,13,19,10.20
2014,04,26,13,20,10.20
2014,04,26,13,21,10.10
2014,04,26,13,22,10.00
2014,04,26,13,23,10.00
2014,04,26,13,24,10.00
2014,04,26,13,25,9.90
2014,04,26,13,26,10.00
2014,04,26,13,27,10.00
2014,04,26,13,28,9.90
2014,04,26,13,29,10.00
2014,04,26,13,30,10.00
2014,04,26,13,31,10.10
2014,04,26,13,32,10.20
2014,04,26,13,33,10.20
2014,04,26,13,34,10.20
2014,04,26,13,35,10.20
2014,04,26,13,36,10.30
2014,04,26,13,37,10.30
2014,04,26,13,38,10.40
2014,04,26,13,39,10.50
2014,04,26,13,40,10.50
2014,04,26,13,41,10.60
2014,04,26,13,42,10.60
2014,04,26,13,43,10.60
2014,04,26,13,44,10.60
2014,04,26,13,45,10.60
2014,04,26,13,46,10.60
2014,04,26,13,47,10.60
2014,04,26,13,48,10.70
2014,04,26,13,49,10.70
2014,04,26,13,50,10.70
2014,04,26,13,51,10.70
2014,04,26,13,52,10.70
2014,04,26,13,53,10.80
2014,04,26,13,54,10.80
2014,04,26,13,55,10.90
2014,04,26,13,56,10.90
2014,04,26,13,57,11.00
2014,04,26,13,58,11.00
2014,04,26,13,59,11.10
2014,04,26,14,00,11.10
2014,04,26,14,01,11.10
2014,04,26,14,02,11.00
2014,04,26,14,03,10.90
2014,04,26,14,04,10.90
2014,04,26,14,05,10.90
2014,04,26,14,06,10.80
2014,04,26,14,07,10.80
2014,04,26,14,08,10.80
2014,04,26,14,09,10.80
2014,04,26,14,10,10.80
2014,04,26,14,11,10.80
2014,04,26,14,12,10.80
2014,04,26,14,13,10.80
2014,04,26,14,14,10.90
2014,04,26,14,15,10.80
2014,04,26,14,16,10.80
2014,04,26,14,17,10.70
2014,04,26,14,18,10.70
2014,04,26,14,19,10.60
2014,04,26,14,20,10.50
2014,04,26,14,21,10.40
2014,04,26,14,22,10.40
2014,04,26,14,23,10.40
2014,04,26,14,24,10.40
2014,04,26,14,25,10.40
2014,04,26,14,26,10.40
2014,04,26,14,27,10.40
2014,04,26,14,28,10.40
2014,04,26,14,29,10.30
2014,04,26,14,30,10.30
2014,04,26,14,31,10.40
2014,04,26,14,32,10.40
2014,04,26,14,33,10.40
2014,04,26,14,34,10.30
2014,04,26,14,35,10.10
2014,04,26,14,36,9.90
2014,04,26,14,37,9.80
2014,04,26,14,38,9.70
2014,04,26,14,39,9.60
2014,04,26,14,40,9.60
2014,04,26,14,41,9.50
2014,04,26,14,42,9.50
2014,04,26,14,43,9.50
2014,04,26,14,44,9.40
2014,04,26,14,45,9.40
2014,04,26,14,46,9.30
2014,04,26,14,47,9.20
2014,04,26,14,48,9.10
2014,04,26,14,49,9.10
2014,04,26,14,50,9.00
2014,04,26,14,51,9.00
2014,04,26,14,52,8.90
2014,04,26,14,53,8.90
2014,04,26,14,54,8.90
2014,04,26,14,55,8.90
2014,04,26,14,56,8.90
2014,04,26,14,57,9.00
2014,04,26,14,58,9.00
2014,04,26,14,59,9.00
2014,04,26,15,00,9.10
2014,04,26,15,01,9.10
2014,04,26,15,02,9.10
2014,04,26,15,03,9.20
2014,04,26,15,04,9.20
2014,04,26,15,05,9.20
2014,04,26,15,06,9.30
2014,04,26,15,07,9.30
2014,04,26,15,08,9.30
2014,04,26,15,09,9.30
2014,04,26,15,10,9.40
2014,04,26,15,11,9.40
2014,04,26,15,12,9.50
2014,04,26,15,13,9.50
2014,04,26,15,14,9.60
2014,04,26,15,15,9.70
2014,04,26,15,16,9.80
2014,04,26,15,17,9.80
2014,04,26,15,18,9.90
2014,04,26,15,19,10.00
2014,04,26,15,20,10.10
2014,04,26,15,21,10.20
2014,04,26,15,22,10.20
2014,04,26,15,23,10.30
2014,04,26,15,24,10.40
2014,04,26,15,25,10.40
2014,04,26,15,26,10.40
2014,04,26,15,27,10.40
2014,04,26,15,28,10.40
2014,04,26,15,29,10.50
2014,04,26,15,30,10.50
2014,04,26,15,31,10.50
2014,04,26,15,32,10.50
2014,04,26,15,33,10.60
2014,04,26,15,34,10.70
2014,04,26,15,35,10.80
2014,04,26,15,36,10.90
2014,04,26,15,37,10.90
2014,04,26,15,38,10.80
2014,04,26,15,39,10.80
2014,04,26,15,40,10.70
2014,04,26,15,41,10.70
2014,04,26,15,42,10.60
2014,04,26,15,43,10.60
2014,04,26,15,44,10.60
2014,04,26,15,45,10.50
2014,04,26,15,46,10.50
2014,04,26,15,47,10.40
2014,04,26,15,48,10.40
2014,04,26,15,49,10.40
2014,04,26,15,50,10.40
2014,04,26,15,51,10.40
2014,04,26,15,52,10.40
2014,04,26,15,53,10.40
2014,04,26,15,54,10.40
2014,04,26,15,55,10.40
2014,04,26,15,56,10.40
2014,04,26,15,57,10.40
2014,04,26,15,58,10.50
2014,04,26,15,59,10.50
2014,04,26,16,00,10.60
2014,04,26,16,01,10.60
2014,04,26,16,02,10.60
2014,04,26,16,03,10.70
2014,04,26,16,04,10.70
2014,04,26,16,05,10.70
2014,04,26,16,06,10.70
2014,04,26,16,07,10.70
2014,04,26,16,08,10.70
2014,04,26,16,09,10.70
2014,04,26,16,10,10.70
2014,04,26,16,11,10.70
2014,04,26,16,12,10.60
2014,04,26,16,13,10.60
2014,04,26,16,14,10.60
2014,04,26,16,15,10.60
2014,04,26,16,16,10.60
2014,04,26,16,17,10.60
2014,04,26,16,18,10.60
2014,04,26,16,19,10.60
2014,04,26,16,20,10.50
2014,04,26,16,21,10.50
2014,04,26,16,22,10.40
2014,04,26,16,23,10.40
2014,04,26,16,24,10.30
2014,04,26,16,25,10.30
2014,04,26,16,26,10.30
2014,04,26,16,27,10.20
2014,04,26,16,28,10.20
2014,04,26,16,29,10.20
2014,04,26,16,30,10.10
2014,04,26,16,31,10.10
2014,04,26,16,32,10.10
2014,04,26,16,33,10.10
2014,04,26,16,34,10.20
2014,04,26,16,35,10.20
2014,04,26,16,36,10.20
2014,04,26,16,37,10.20
2014,04,26,16,38,10.20
2014,04,26,16,39,10.20
2014,04,26,16,40,10.20
2014,04,26,16,41,10.20
2014,04,26,16,42,10.20
2014,04,26,16,43,10.20
2014,04,26,16,44,10.30
2014,04,26,16,45,10.30
2014,04,26,16,46,10.30
2014,04,26,16,47,10.20
2014,04,26,16,48,10.20
2014,04,26,16,49,10.20
2014,04,26,16,50,10.20
2014,04,26,16,51,10.10
2014,04,26,16,52,10.10
2014,04,26,16,53,10.10
2014,04,26,16,54,10.10
2014,04,26,16,55,10.10
2014,04,26,16,56,10.10
2014,04,26,16,57,10.10
2014,04,26,16,58,10.10
2014,04,26,16,59,10.10
2014,04,26,17,00,10.10
2014,04,26,17,01,10.00
2014,04,26,17,02,10.00
2014,04,26,17,03,9.90
2014,04,26,17,04,9.90
2014,04,26,17,05,9.90
2014,04,26,17,06,9.80
2014,04,26,17,07,9.80
2014,04,26,17,08,9.70
2014,04,26,17,09,9.70
2014,04,26,17,10,9.60
2014,04,26,17,11,9.60
2014,04,26,17,12,9.60
2014,04,26,17,13,9.50
2014,04,26,17,14,9.50
2014,04,26,17,15,9.50
2014,04,26,17,16,9.40
2014,04,26,17,17,9.40
2014,04,26,17,18,9.40
2014,04,26,17,19,9.40
2014,04,26,17,20,9.40
2014,04,26,17,21,9.40
2014,04,26,17,22,9.40
2014,04,26,17,23,9.40
2014,04,26,17,24,9.40
2014,04,26,17,25,9.40
2014,04,26,17,26,9.40
2014,04,26,17,27,9.40
2014,04,26,17,28,9.40
2014,04,26,17,29,9.40
2014,04,26,17,30,9.40
2014,04,26,17,31,9.40
2014,04,26,17,32,9.40
2014,04,26,17,33,9.30
2014,04,26,17,34,9.30
2014,04,26,17,35,9.30
2014,04,26,17,36,9.20
2014,04,26,17,37,9.20
2014,04,26,17,38,9.20
2014,04,26,17,39,9.20
2014,04,26,17,40,9.10
2014,04,26,17,41,9.10
2014,04,26,17,42,9.10
2014,04,26,17,43,9.00
2014,04,26,17,44,9.00
2014,04,26,17,45,9.00
2014,04,26,17,46,8.90
2014,04,26,17,47,8.90
2014,04,26,17,48,8.90
2014,04,26,17,49,8.90